OE7WDJ Weather Reports


time (UTC)temp
F
wind
direction
speed
knots
gust
knots
rain 1hr
in
rain 24hr
in
rain mn
in
humidity
%
barometer
mb
20260506121708 68 270 4.3 0.0 0.00 0.00 0.00 38 1002.4
20260506121508 68 248 3.5 0.0 0.00 0.00 0.00 38 1002.4
20260506121323 68 248 0.0 0.0 0.00 0.00 0.00 38 1002.5
20260506121108 68 315 0.0 0.0 0.00 0.00 0.00 38 1002.5
20260506120908 68 202 5.2 0.0 0.00 0.00 0.00 38 1002.5
20260506120705 68 270 0.0 0.0 0.00 0.00 0.00 39 1002.5
20260506120511 68 270 0.0 0.0 0.00 0.00 0.00 39 1002.5
20260506120311 68 270 0.0 0.0 0.00 0.00 0.00 39 1002.5
20260506120008 67 248 3.5 0.0 0.00 0.00 0.00 39 1002.6
20260506115809 67 248 3.5 0.0 0.00 0.00 0.00 39 1002.6
20260506115613 67 248 1.7 0.0 0.00 0.00 0.00 39 1002.6
20260506115409 67 270 0.0 0.0 0.00 0.00 0.00 39 1002.6
20260506115207 67 248 4.3 0.0 0.00 0.00 0.00 39 1002.7
20260506115008 67 315 5.2 0.0 0.00 0.00 0.00 39 1002.9
20260506114808 67 315 5.2 0.0 0.00 0.00 0.00 39 1002.9
20260506114609 67 292 0.0 0.0 0.00 0.00 0.00 39 1003.0
20260506114409 67 292 4.3 0.0 0.00 0.00 0.00 38 1003.2
20260506114207 68 315 8.7 0.0 0.00 0.00 0.00 37 1003.2
20260506114006 68 292 0.9 0.0 0.00 0.00 0.00 37 1003.2
20260506113809 69 270 5.2 0.0 0.00 0.00 0.00 36 1003.2
20260506113605 69 270 0.0 0.0 0.00 0.00 0.00 36 1003.2
20260506113405 69 248 1.7 0.0 0.00 0.00 0.00 36 1003.2
20260506113311 69 248 1.7 0.0 0.00 0.00 0.00 36 1003.2
20260506113107 69 248 1.7 0.0 0.00 0.00 0.00 36 1003.2
20260506112909 69 248 0.9 0.0 0.00 0.00 0.00 35 1003.2
20260506112710 70 292 12.2 0.0 0.00 0.00 0.00 35 1003.2
20260506112508 70 270 0.0 0.0 0.00 0.00 0.00 35 1003.2
20260506112306 71 248 3.5 0.0 0.00 0.00 0.00 34 1003.0
20260506112107 71 270 0.0 0.0 0.00 0.00 0.00 34 1003.1
20260506111907 72 248 0.0 0.0 0.00 0.00 0.00 34 1003.1
20260506111705 72 248 0.0 0.0 0.00 0.00 0.00 34 1003.1
20260506111511 72 248 0.0 0.0 0.00 0.00 0.00 34 1003.2
20260506111309 72 248 0.0 0.0 0.00 0.00 0.00 34 1003.3
20260506111110 72 248 2.6 0.0 0.00 0.00 0.00 35 1003.2
20260506110913 72 248 0.0 0.0 0.00 0.00 0.00 35 1003.2
20260506110716 72 0 0.0 0.0 0.00 0.00 0.00 34 1003.2
20260506110508 72 0 0.0 0.0 0.00 0.00 0.00 34 1003.2
20260506110219 73 0 0.0 0.0 0.00 0.00 0.00 34 1003.2
20260506105912 73 248 0.0 0.0 0.00 0.00 0.00 34 1003.3
20260506105713 73 45 0.0 0.0 0.00 0.00 0.00 35 1003.3
20260506105507 72 0 0.0 0.0 0.00 0.00 0.00 35 1003.4
20260506105308 71 45 0.0 0.0 0.00 0.00 0.00 35 1003.3
20260506105119 71 45 0.0 0.0 0.00 0.00 0.00 36 1003.3
20260506104912 71 248 0.0 0.0 0.00 0.00 0.00 36 1003.4
20260506104710 71 248 0.0 0.0 0.00 0.00 0.00 36 1003.3
20260506104512 71 248 0.0 0.0 0.00 0.00 0.00 36 1003.3
20260506104311 71 248 0.0 0.0 0.00 0.00 0.00 36 1003.4
20260506104109 71 292 0.0 0.0 0.00 0.00 0.00 36 1003.4
20260506103917 70 68 0.0 0.0 0.00 0.00 0.00 36 1003.5
20260506103711 70 68 4.3 0.0 0.00 0.00 0.00 36 1003.5
20260506103512 70 0 4.3 0.0 0.00 0.00 0.00 36 1003.7
20260506103312 70 0 4.3 0.0 0.00 0.00 0.00 36 1003.7
20260506103111 70 270 0.0 0.0 0.00 0.00 0.00 37 1003.8
20260506102908 70 0 0.0 0.0 0.00 0.00 0.00 37 1003.8
20260506102711 69 0 0.0 0.0 0.00 0.00 0.00 37 1003.9
20260506102510 68 112 0.0 0.0 0.00 0.00 0.00 37 1003.9
20260506102315 69 338 4.3 0.0 0.00 0.00 0.00 37 1003.9
20260506102108 69 0 3.5 0.0 0.00 0.00 0.00 37 1003.9
20260506101913 69 0 3.5 0.0 0.00 0.00 0.00 38 1003.9
20260506101711 29 338 0.0 0.0 0.00 0.00 0.00 38 1004.0
20260506101509 69 68 0.0 0.0 0.00 0.00 0.00 40 1004.0
20260506101306 69 68 0.0 0.0 0.00 0.00 0.00 40 1004.0
20260506101111 69 68 0.0 0.0 0.00 0.00 0.00 40 1004.0
20260506100911 68 68 0.0 0.0 0.00 0.00 0.00 40 1004.0
20260506100611 68 270 0.0 0.0 0.00 0.00 0.00 41 1004.1
20260506100411 66 270 0.0 0.0 0.00 0.00 0.00 41 1004.2
20260506100208 66 270 0.0 0.0 0.00 0.00 0.00 41 1004.3
20260506100007 66 270 0.0 0.0 0.00 0.00 0.00 41 1004.3
20260506095812 66 270 0.0 0.0 0.00 0.00 0.00 41 1004.4
20260506095608 66 270 0.0 0.0 0.00 0.00 0.00 41 1004.4
20260506095508 66 270 0.0 0.0 0.00 0.00 0.00 41 1004.4
20260506095312 65 270 0.0 0.0 0.00 0.00 0.00 41 1004.5
20260506095109 65 248 0.0 0.0 0.00 0.00 0.00 43 1004.6
20260506094910 65 225 0.0 0.0 0.00 0.00 0.00 42 1004.6
20260506094714 65 225 0.0 0.0 0.00 0.00 0.00 44 1004.5
20260506094508 65 225 0.0 0.0 0.00 0.00 0.00 44 1004.6
20260506094313 65 225 0.0 0.0 0.00 0.00 0.00 44 1004.6
20260506094010 65 225 0.0 0.0 0.00 0.00 0.00 44 1004.7
20260506093810 65 225 0.0 0.0 0.00 0.00 0.00 44 1004.8
20260506093608 65 315 7.0 0.0 0.00 0.00 0.00 44 1004.7
20260506093409 65 270 0.0 0.0 0.00 0.00 0.00 44 1004.9
20260506093209 65 315 3.5 0.0 0.00 0.00 0.00 44 1004.9
20260506093009 64 135 0.0 0.0 0.00 0.00 0.00 45 1005.0
20260506092809 63 135 0.0 0.0 0.00 0.00 0.00 47 1005.0
20260506092511 63 135 0.0 0.0 0.00 0.00 0.00 47 1005.2
20260506092312 63 135 0.0 0.0 0.00 0.00 0.00 46 1005.1
20260506092108 63 248 2.6 0.0 0.00 0.00 0.00 46 1005.1
20260506091911 62 248 2.6 0.0 0.00 0.00 0.00 47 1005.1
20260506091709 62 338 1.7 0.0 0.00 0.00 0.00 47 1005.1
20260506091514 62 135 0.0 0.0 0.00 0.00 0.00 47 1005.2
20260506091211 62 90 3.5 0.0 0.00 0.00 0.00 48 1005.1
20260506091010 61 22 7.8 0.0 0.00 0.00 0.00 48 1005.4
20260506090809 61 45 7.0 0.0 0.00 0.00 0.00 49 1005.1
20260506090610 61 0 1.7 0.0 0.00 0.00 0.00 49 1005.1
20260506090409 61 292 0.0 0.0 0.00 0.00 0.00 49 1005.0
20260506090211 61 292 0.0 0.0 0.00 0.00 0.00 52 1004.8
20260506090012 20 270 0.0 0.0 0.00 0.00 0.00 51 1004.7
20260506085809 20 292 0.0 0.0 0.00 0.00 0.00 50 1004.8
20260506085607 20 292 0.0 0.0 0.00 0.00 0.00 50 1004.7
20260506085410 62 292 0.0 0.0 0.00 0.00 0.00 50 1004.7
20260506085208 63 135 0.0 0.0 0.00 0.00 0.00 50 1004.5
20260506085007 63 90 0.0 0.0 0.00 0.00 0.00 50 1004.6
20260506084808 63 180 0.0 0.0 0.00 0.00 0.00 50 1004.6
20260506084608 63 180 0.0 0.0 0.00 0.00 0.00 50 1004.5
20260506084510 64 180 0.0 0.0 0.00 0.00 0.00 50 1004.3
20260506084307 64 135 0.0 0.0 0.00 0.00 0.00 49 1004.3
20260506084110 64 135 0.0 0.0 0.00 0.00 0.00 49 1004.3
20260506083911 64 135 0.0 0.0 0.00 0.00 0.00 49 1004.3
20260506083708 64 112 0.9 0.0 0.00 0.00 0.00 49 1004.3
20260506083512 65 68 0.0 0.0 0.00 0.00 0.00 48 1004.1
20260506083308 65 135 0.0 0.0 0.00 0.00 0.00 48 1004.1
20260506083210 65 90 2.6 0.0 0.00 0.00 0.00 48 1004.0
20260506083008 66 112 1.7 0.0 0.00 0.00 0.00 47 1004.0
20260506082814 66 112 1.7 0.0 0.00 0.00 0.00 47 1004.0
20260506082614 66 135 0.0 0.0 0.00 0.00 0.00 47 1004.0
20260506082408 66 135 0.0 0.0 0.00 0.00 0.00 47 1004.0
20260506082208 67 135 2.6 0.0 0.00 0.00 0.00 47 1004.0
20260506082013 66 112 2.6 0.0 0.00 0.00 0.00 47 1004.0
20260506081807 66 90 0.0 0.0 0.00 0.00 0.00 47 1004.0
20260506081709 66 90 0.0 0.0 0.00 0.00 0.00 48 1004.0
20260506081413 66 68 0.0 0.0 0.00 0.00 0.00 48 1004.1
20260506081207 66 135 2.6 0.0 0.00 0.00 0.00 48 1004.2
20260506081007 66 135 2.6 0.0 0.00 0.00 0.00 48 1004.2
20260506080808 66 135 0.0 0.0 0.00 0.00 0.00 47 1004.1
20260506080611 66 158 0.0 0.0 0.00 0.00 0.00 47 1004.1
20260506080411 66 158 0.0 0.0 0.00 0.00 0.00 47 1004.0
20260506080211 67 135 0.9 0.0 0.00 0.00 0.00 48 1004.0
20260506073306 65 135 0.0 0.0 0.00 0.00 0.00 49 1004.6
20260506073109 65 135 0.0 0.0 0.00 0.00 0.00 49 1004.6
20260506072909 65 135 0.0 0.0 0.00 0.00 0.00 49 1004.6
20260506072709 65 135 0.0 0.0 0.00 0.00 0.00 51 1004.7
20260506072510 65 135 1.7 0.0 0.00 0.00 0.00 51 1004.7
20260506072307 65 135 1.7 0.0 0.00 0.00 0.00 52 1004.8
20260506072108 64 90 0.0 0.0 0.00 0.00 0.00 52 1004.8
20260506071907 64 90 0.0 0.0 0.00 0.00 0.00 52 1004.8
20260506071708 64 90 0.0 0.0 0.00 0.00 0.00 53 1004.9
20260506071508 62 90 0.0 0.0 0.00 0.00 0.00 54 1004.8
20260506071308 62 90 0.0 0.0 0.00 0.00 0.00 54 1004.8
20260506071111 62 135 0.0 0.0 0.00 0.00 0.00 57 1005.0
20260506070907 62 68 0.0 0.0 0.00 0.00 0.00 57 1005.1
20260506070711 62 90 3.5 0.0 0.00 0.00 0.00 57 1005.1
20260506070405 60 90 3.5 0.0 0.00 0.00 0.00 60 1005.3
20260506070208 60 90 3.5 0.0 0.00 0.00 0.00 60 1005.3
20260506062511 57 90 0.0 0.0 0.00 0.00 0.00 61 1005.4
20260506062307 57 90 0.0 0.0 0.00 0.00 0.00 61 1005.4
20260506062108 57 90 0.0 0.0 0.00 0.00 0.00 62 1005.3
20260506061909 57 90 0.0 0.0 0.00 0.00 0.00 62 1005.3
20260506061708 57 90 0.0 0.0 0.00 0.00 0.00 62 1005.3
20260506061508 57 90 0.0 0.0 0.00 0.00 0.00 62 1005.3
20260506061311 57 90 0.0 0.0 0.00 0.00 0.00 62 1005.3
20260506061108 57 90 0.0 0.0 0.00 0.00 0.00 63 1005.3
20260506061008 57 90 0.0 0.0 0.00 0.00 0.00 63 1005.4
20260506060811 57 90 0.0 0.0 0.00 0.00 0.00 64 1005.4
20260506060610 56 90 0.0 0.0 0.00 0.00 0.00 65 1005.4
20260506060411 56 90 0.0 0.0 0.00 0.00 0.00 69 1005.4
20260506060210 55 90 0.0 0.0 0.00 0.00 0.00 69 1005.5
20260506051408 47 90 0.0 0.0 0.00 0.00 0.00 77 1006.0
20260506051212 47 90 0.0 0.0 0.00 0.00 0.00 77 1006.1
20260506051011 47 90 0.0 0.0 0.00 0.00 0.00 77 1006.0
20260506050806 47 90 0.0 0.0 0.00 0.00 0.00 77 1006.1
20260506050609 47 90 0.0 0.0 0.00 0.00 0.00 77 1006.3
20260506050409 47 90 0.0 0.0 0.00 0.00 0.00 77 1006.2
20260506050206 47 90 0.0 0.0 0.00 0.00 0.00 77 1006.2
20260506045025 47 90 0.0 0.0 0.00 0.00 0.00 76 1006.3
20260506044812 47 90 0.0 0.0 0.00 0.00 0.00 76 1006.4
20260506044745 47 90 0.0 0.0 0.00 0.00 0.00 76 1006.4
20260506044308 47 90 0.0 0.0 0.00 0.00 0.00 76 1006.3
20260506044111 47 90 0.0 0.0 0.00 0.00 0.00 76 1006.4
20260506043907 47 90 0.0 0.0 0.00 0.00 0.00 76 1006.3
20260506043709 47 90 0.0 0.0 0.00 0.00 0.00 76 1006.4
20260506043511 47 90 0.0 0.0 0.00 0.00 0.00 76 1006.4
20260506043312 47 90 0.0 0.0 0.00 0.00 0.00 76 1006.4
20260506043210 47 90 0.0 0.0 0.00 0.00 0.00 76 1006.4
20260506043011 47 90 0.0 0.0 0.00 0.00 0.00 76 1006.4
20260506042807 47 90 0.0 0.0 0.00 0.00 0.00 76 1006.4
20260506042613 47 90 0.0 0.0 0.00 0.00 0.00 76 1006.4
20260506042411 47 90 0.0 0.0 0.00 0.00 0.00 77 1006.5
20260506042213 47 90 0.0 0.0 0.00 0.00 0.00 77 1006.6
20260506042007 47 90 0.0 0.0 0.00 0.00 0.00 77 1006.5
20260506041910 47 90 0.0 0.0 0.00 0.00 0.00 77 1006.4
20260506041712 47 90 0.0 0.0 0.00 0.00 0.00 77 1006.5
20260506041511 47 90 0.0 0.0 0.00 0.00 0.00 77 1006.6
20260506041311 47 90 0.0 0.0 0.00 0.00 0.00 77 1006.7
20260506041108 47 90 0.0 0.0 0.00 0.00 0.00 77 1006.6
20260506040909 47 90 0.0 0.0 0.00 0.00 0.00 77 1006.6
20260506040707 47 90 0.0 0.0 0.00 0.00 0.00 77 1006.6
20260506040512 47 90 0.0 0.0 0.00 0.00 0.00 77 1006.5
20260505200315 58 225 3.5 0.0 0.00 0.00 0.00 50 1006.4
20260505200107 58 225 5.2 0.0 0.00 0.00 0.00 50 1006.5
20260505195911 58 248 5.2 0.0 0.00 0.00 0.00 52 1006.4
20260505195713 58 248 1.7 0.0 0.00 0.00 0.00 51 1006.4
20260505195509 57 248 1.7 0.0 0.00 0.00 0.00 51 1006.4
20260505195313 57 248 3.5 0.0 0.00 0.00 0.00 52 1006.4
20260505195111 58 225 5.2 0.0 0.00 0.00 0.00 52 1006.4
20260505194908 58 248 0.0 0.0 0.00 0.00 0.00 51 1006.4
20260505194708 58 292 0.0 0.0 0.00 0.00 0.00 51 1006.4
20260505194509 59 270 0.0 0.0 0.00 0.00 0.00 50 1006.3
20260505194411 59 270 0.0 0.0 0.00 0.00 0.00 50 1006.3
20260505194210 59 270 0.0 0.0 0.00 0.00 0.00 49 1006.4
20260505194009 59 225 7.8 0.0 0.00 0.00 0.00 47 1006.3
20260505193808 60 270 0.0 0.0 0.00 0.00 0.00 49 1006.3
20260505193613 60 270 0.0 0.0 0.00 0.00 0.00 48 1006.3
20260505193413 60 248 0.0 0.0 0.00 0.00 0.00 47 1006.3
20260505193210 60 248 5.2 0.0 0.00 0.00 0.00 47 1006.2
20260505193012 60 248 4.3 0.0 0.00 0.00 0.00 48 1006.2
20260505192810 60 248 3.5 0.0 0.00 0.00 0.00 48 1006.2
20260505192610 60 248 3.5 0.0 0.00 0.00 0.00 48 1006.1
20260505192414 59 248 1.7 0.0 0.00 0.00 0.00 48 1006.0
20260505192210 59 225 9.6 0.0 0.00 0.00 0.00 49 1005.9
20260505192012 59 292 5.2 0.0 0.00 0.00 0.00 49 1006.0
20260505191813 59 225 6.1 0.0 0.00 0.00 0.00 49 1005.8
20260505191719 59 248 2.6 0.0 0.00 0.00 0.00 49 1005.8
20260505191414 59 248 7.0 0.0 0.00 0.00 0.00 50 1005.7
20260505191211 60 270 1.7 0.0 0.00 0.00 0.00 49 1005.8
20260505191010 60 248 4.3 0.0 0.00 0.00 0.00 49 1005.9
20260505190808 60 248 2.6 0.0 0.00 0.00 0.00 48 1005.8
20260505190608 59 315 3.5 0.0 0.00 0.00 0.00 48 1005.8
20260505190412 60 248 2.6 0.0 0.00 0.00 0.00 49 1005.8
20260505190107 59 270 0.0 0.0 0.00 0.00 0.00 49 1005.8
20260505185927 59 248 3.5 0.0 0.00 0.00 0.00 49 1005.7
20260505185612 59 248 3.5 0.0 0.00 0.00 0.00 49 1005.7
20260505185409 59 225 7.0 0.0 0.00 0.00 0.00 50 1005.7
20260505185212 59 270 0.0 0.0 0.00 0.00 0.00 50 1005.7
20260505185010 59 248 2.6 0.0 0.00 0.00 0.00 50 1005.7
20260505184912 58 270 5.2 0.0 0.00 0.00 0.00 51 1005.6
20260505184712 58 248 3.5 0.0 0.00 0.00 0.00 52 1005.5
20260505184407 57 248 4.3 0.0 0.00 0.00 0.00 52 1005.5
20260505184207 57 202 3.5 0.0 0.00 0.00 0.00 55 1005.5
20260505184010 57 270 6.1 0.0 0.00 0.00 0.00 55 1005.4
20260505183812 57 270 1.7 0.0 0.00 0.00 0.00 55 1005.4
20260505183611 57 248 3.5 0.0 0.00 0.00 0.00 55 1005.5
20260505183408 57 248 3.5 0.0 0.00 0.00 0.00 54 1005.4
20260505183211 57 270 0.0 0.0 0.00 0.00 0.00 55 1005.5
20260505182910 57 248 4.3 0.0 0.00 0.00 0.00 55 1005.6
20260505182709 58 248 3.5 0.0 0.00 0.00 0.00 54 1005.5
20260505182510 58 270 0.0 0.0 0.00 0.00 0.00 54 1005.5
20260505182310 58 248 2.6 0.0 0.00 0.00 0.00 54 1005.6
20260505182111 58 292 3.5 0.0 0.00 0.00 0.00 54 1005.5
20260505181910 58 248 1.7 0.0 0.00 0.00 0.00 53 1005.5
20260505181713 59 270 0.0 0.0 0.00 0.00 0.00 53 1005.5
20260505181508 59 270 0.0 0.0 0.00 0.00 0.00 52 1005.6
20260505181309 59 338 1.7 0.0 0.00 0.00 0.00 52 1005.6
20260505181112 59 338 1.7 0.0 0.00 0.00 0.00 52 1005.5
20260505180908 58 248 3.5 0.0 0.00 0.00 0.00 52 1005.5
20260505180710 59 248 4.3 0.0 0.00 0.00 0.00 54 1005.5
20260505180608 59 248 3.5 0.0 0.00 0.00 0.00 54 1005.4
20260505180415 59 292 0.0 0.0 0.00 0.00 0.00 53 1005.5
20260505180208 59 248 1.7 0.0 0.00 0.00 0.00 53 1005.4
20260505175927 58 248 5.2 0.0 0.00 0.00 0.00 54 1005.5
20260505175610 58 248 5.2 0.0 0.00 0.00 0.00 54 1005.4
20260505175416 58 270 1.7 0.0 0.00 0.00 0.00 54 1005.4
20260505175316 59 248 1.7 0.0 0.00 0.00 0.00 54 1005.3
20260505175118 59 270 0.0 0.0 0.00 0.00 0.00 54 1005.4
20260505174911 59 270 0.0 0.0 0.00 0.00 0.00 54 1005.4
20260505174713 59 270 0.0 0.0 0.00 0.00 0.00 54 1005.4
20260505174508 59 270 0.0 0.0 0.00 0.00 0.00 54 1005.3
20260505174310 59 248 0.0 0.0 0.00 0.00 0.00 54 1005.5
20260505174110 59 248 0.0 0.0 0.00 0.00 0.00 54 1005.4
20260505173811 58 248 6.1 0.0 0.00 0.00 0.00 55 1005.4
20260505173607 58 248 0.9 0.0 0.00 0.00 0.00 55 1005.4
20260505173409 58 248 0.9 0.0 0.00 0.00 0.00 55 1005.4
20260505173208 58 270 0.9 0.0 0.00 0.00 0.00 56 1005.4
20260505172908 58 248 0.9 0.0 0.00 0.00 0.00 56 1005.3
20260505172706 58 248 0.9 0.0 0.00 0.00 0.00 56 1005.4
20260505172508 58 248 0.9 0.0 0.00 0.00 0.00 56 1005.4
20260505172311 59 248 1.7 0.0 0.00 0.00 0.00 56 1005.4
20260505172108 59 248 2.6 0.0 0.00 0.00 0.00 56 1005.4
20260505171908 59 248 0.9 0.0 0.00 0.00 0.00 54 1005.4
20260505171708 59 270 0.0 0.0 0.00 0.00 0.00 54 1005.4
20260505171407 59 248 2.6 0.0 0.00 0.00 0.00 55 1005.4
20260505171210 59 248 1.7 0.0 0.00 0.00 0.00 53 1005.4
20260505171008 59 248 0.0 0.0 0.00 0.00 0.00 54 1005.3
20260505170808 59 248 0.0 0.0 0.00 0.00 0.00 54 1005.4
20260505170611 59 292 0.0 0.0 0.00 0.00 0.00 54 1005.4
20260505170411 59 292 0.0 0.0 0.00 0.00 0.00 53 1005.4
20260505170210 60 270 0.0 0.0 0.00 0.00 0.00 53 1005.3
20260505165928 60 248 0.0 0.0 0.00 0.00 0.00 52 1005.4
20260505165608 60 248 0.0 0.0 0.00 0.00 0.00 52 1005.4
20260505165407 60 270 2.6 0.0 0.00 0.00 0.00 51 1005.3
20260505165213 60 248 0.0 0.0 0.00 0.00 0.00 51 1005.3
20260505165007 60 292 0.0 0.0 0.00 0.00 0.00 51 1005.4
20260505164811 61 270 0.0 0.0 0.00 0.00 0.00 49 1005.4
20260505164610 61 248 0.0 0.0 0.00 0.00 0.00 48 1005.4
20260505164406 61 248 0.0 0.0 0.00 0.00 0.00 48 1005.4
20260505164206 62 292 0.0 0.0 0.00 0.00 0.00 46 1005.4
20260505164006 62 292 0.0 0.0 0.00 0.00 0.00 46 1005.4
20260505163807 63 292 0.0 0.0 0.00 0.00 0.00 45 1005.4
20260505163611 63 248 0.0 0.0 0.00 0.00 0.00 45 1005.3
20260505163411 63 338 0.0 0.0 0.00 0.00 0.00 42 1005.4
20260505163208 64 292 0.0 0.0 0.00 0.00 0.00 42 1005.4
20260505163011 64 248 0.0 0.0 0.00 0.00 0.00 42 1005.5
20260505162805 64 248 0.0 0.0 0.00 0.00 0.00 42 1005.4
20260505162706 64 248 0.0 0.0 0.00 0.00 0.00 42 1005.4
20260505162507 64 248 0.0 0.0 0.00 0.00 0.00 42 1005.5
20260505162311 65 248 1.7 0.0 0.00 0.00 0.00 41 1005.5
20260505162112 22 248 0.0 0.0 0.00 0.00 0.00 41 1005.4
20260505161907 66 248 0.0 0.0 0.00 0.00 0.00 40 1005.5
20260505161708 67 248 0.0 0.0 0.00 0.00 0.00 37 1005.4
20260505161510 67 202 0.0 0.0 0.00 0.00 0.00 37 1005.3
20260505161407 67 202 0.0 0.0 0.00 0.00 0.00 37 1005.3
20260505161207 67 202 0.0 0.0 0.00 0.00 0.00 36 1005.4
20260505161007 68 202 0.0 0.0 0.00 0.00 0.00 36 1005.5
20260505160807 69 0 0.0 0.0 0.00 0.00 0.00 35 1005.4
20260505160610 69 90 0.0 0.0 0.00 0.00 0.00 35 1005.4
20260505160411 69 338 0.0 0.0 0.00 0.00 0.00 35 1005.5
20260505160212 69 338 0.0 0.0 0.00 0.00 0.00 34 1005.5
20260505153208 69 315 4.3 0.0 0.00 0.00 0.00 36 1005.4
20260505153007 69 135 5.2 0.0 0.00 0.00 0.00 36 1005.4
20260505152808 68 135 5.2 0.0 0.00 0.00 0.00 36 1005.6
20260505152607 68 248 0.0 0.0 0.00 0.00 0.00 37 1005.6
20260505152408 68 248 0.0 0.0 0.00 0.00 0.00 37 1005.5
20260505152208 68 158 0.0 0.0 0.00 0.00 0.00 37 1005.5
20260505151908 68 0 0.0 0.0 0.00 0.00 0.00 37 1005.6
20260505151708 68 0 0.0 0.0 0.00 0.00 0.00 37 1005.5
20260505151510 68 112 0.9 0.0 0.00 0.00 0.00 37 1005.5
20260505151308 67 112 0.9 0.0 0.00 0.00 0.00 37 1005.4
20260505151107 67 225 7.0 0.0 0.00 0.00 0.00 37 1005.4
20260505150908 68 135 2.6 0.0 0.00 0.00 0.00 37 1005.4
20260505150707 68 248 2.6 0.0 0.00 0.00 0.00 37 1005.5
20260505150515 68 248 2.6 0.0 0.00 0.00 0.00 36 1005.5
20260505150309 69 202 0.0 0.0 0.00 0.00 0.00 36 1005.5
20260505150111 69 270 0.0 0.0 0.00 0.00 0.00 36 1005.7
20260505140608 70 158 0.0 0.0 0.00 0.00 0.00 35 1005.5
20260505140408 70 292 5.2 0.0 0.00 0.00 0.00 35 1005.5
20260505140210 70 292 5.2 0.0 0.00 0.00 0.00 35 1005.4
20260505130240 69 292 0.0 0.0 0.00 0.00 0.00 34 1005.5
20260505125010 71 292 1.7 0.0 0.00 0.00 0.00 33 1005.4
20260505124812 71 292 1.7 0.0 0.00 0.00 0.00 33 1005.5
20260505124411 71 248 4.3 0.0 0.00 0.00 0.00 33 1005.5
20260505124208 71 248 3.5 0.0 0.00 0.00 0.00 32 1005.4
20260505124009 71 248 2.6 0.0 0.00 0.00 0.00 32 1005.5
20260505123811 72 248 4.3 0.0 0.00 0.00 0.00 32 1005.4
20260505123608 72 270 0.0 0.0 0.00 0.00 0.00 32 1005.4
20260505123421 72 248 0.0 0.0 0.00 0.00 0.00 32 1005.4
20260505123209 72 158 0.0 0.0 0.00 0.00 0.00 32 1005.5
20260505123015 72 315 0.0 0.0 0.00 0.00 0.00 32 1005.5
20260505122807 73 315 0.0 0.0 0.00 0.00 0.00 32 1005.5
20260505122611 73 270 0.0 0.0 0.00 0.00 0.00 32 1005.5
20260505122410 73 112 0.0 0.0 0.00 0.00 0.00 32 1005.5
20260505122208 73 270 0.0 0.0 0.00 0.00 0.00 31 1005.5
20260505122012 73 270 0.0 0.0 0.00 0.00 0.00 31 1005.4